Gainesville, FL

1:25 PM EST on December 08, 2019 (GMT -0500)
Gainesville Regional

Weather History for KGNV - October, 2019

Change the Weather History Date:

Tuesday, October 8, 2019

  Actual Average Record
Temperature  
Mean Temperature 78 °F 73 °F  
Max Temperature 85 °F 83 °F 95 °F (1925)
Min Temperature 71 °F 63 °F 43 °F (1920)
Degree Days  
Heating Degree Days 0 0  
Month to date heating degree days 0 0  
Since 1 July heating degree days 0 0  
Cooling Degree Days 13 9  
Month to date cooling degree days 107 76  
Year to date cooling degree days 3123 2416  
Growing Degree Days 27 (Base 50)    
Moisture  
Dew Point 71 °F    
Average Humidity 85    
Maximum Humidity 100    
Minimum Humidity 69    
Precipitation  
Precipitation 0.01 in 0.12 in 3.96 in (1946)
Month to date precipitation 1.86 1.00  
Year to date precipitation 40.10 40.99  
Snow  
Snow 0.00 in 0.00 in 0.00 in ()
Month to date snowfall 0.0 0.0  
Since 1 July snowfall 0.0 0.0  
Since 1 September snowfall 0.0 0.0  
Snow Depth 0.00 in    
Sea Level Pressure  
Sea Level Pressure 29.94 in    
Wind  
Wind Speed 6 mph (NNE)    
Max Wind Speed 13 mph    
Max Gust Speed 16 mph    
Visibility 9 miles    
Events Rain    
T = Trace of Precipitation, MM = Missing Value Source: NWS Daily Summary

Daily Weather History Graph

Daily Weather History Graph

Search for Another Location

Airport or City:

Astronomy

Oct. 08, 2019 Rise Set
Actual Time 7:26 AM EDT 7:06 PM EDT
Civil Twilight 7:02 AM EDT 7:30 PM EDT
Nautical Twilight 6:34 AM EDT 7:58 PM EDT
Astronomical Twilight 6:07 AM EDT 8:25 PM EDT
Moon 4:38 PM EDT 2:43 AM EDT
Length of Visible Light 12h 28m
Length of Day
11h 40m
Waxing Gibbous, 77% of the Moon is Illuminated
Oct 8
Waxing Gibbous
Oct 13
Full
Oct 21
Last Quarter
Oct 27
New
Nov 4
First Quarter

Hourly Weather History & Observations

Time (EDT) Temp. Heat Index Dew Point Humidity Pressure Visibility Wind Dir Wind Speed Gust Speed Precip Events Conditions
12:25 AM 72.0 °F - 71.1 °F 97% 29.94 in 7.0 mi NE 5.8 mph - N/A   Mostly Cloudy
12:53 AM 73.0 °F - 71.1 °F 93% 29.92 in 6.0 mi NNE 6.9 mph - N/A   Overcast
1:53 AM 73.0 °F - 72.0 °F 96% 29.91 in 8.0 mi NNE 5.8 mph - N/A   Overcast
2:53 AM 73.9 °F - 72.0 °F 93% 29.89 in 7.0 mi NNE 6.9 mph - N/A   Overcast
3:07 AM 73.9 °F - 72.0 °F 93% 29.89 in 7.0 mi NE 8.1 mph - N/A   Overcast
3:53 AM 73.0 °F - 71.1 °F 93% 29.88 in 8.0 mi North 6.9 mph - N/A   Overcast
4:24 AM 73.0 °F - 71.1 °F 93% 29.89 in 9.0 mi North 6.9 mph - N/A   Overcast
4:53 AM 72.0 °F - 71.1 °F 97% 29.89 in 10.0 mi North 9.2 mph - N/A   Overcast
5:53 AM 72.0 °F - 71.1 °F 97% 29.90 in 7.0 mi North 9.2 mph - N/A   Overcast
6:53 AM 72.0 °F - 71.1 °F 97% 29.91 in 10.0 mi North 4.6 mph - N/A   Overcast
7:06 AM 72.0 °F - 70.0 °F 93% 29.92 in 10.0 mi North 5.8 mph - N/A   Mostly Cloudy
7:21 AM 72.0 °F - 70.0 °F 93% 29.92 in 10.0 mi North 4.6 mph - N/A   Scattered Clouds
7:53 AM 73.0 °F - 70.0 °F 90% 29.93 in 10.0 mi North 4.6 mph - N/A   Mostly Cloudy
8:53 AM 75.0 °F - 71.1 °F 87% 29.94 in 10.0 mi NNE 9.2 mph - N/A   Mostly Cloudy
9:23 AM 77.0 °F - 72.0 °F 84% 29.95 in 10.0 mi NNE 6.9 mph - N/A   Scattered Clouds
9:38 AM 77.0 °F - 72.0 °F 84% 29.96 in 10.0 mi Variable 6.9 mph - N/A   Mostly Cloudy
9:53 AM 75.9 °F - 72.0 °F 87% 29.96 in 10.0 mi NNE 12.7 mph - N/A   Mostly Cloudy
10:03 AM 75.9 °F - 71.1 °F 85% 29.97 in 10.0 mi North 10.4 mph - N/A   Overcast
10:25 AM 75.9 °F - 71.1 °F 85% 29.98 in 10.0 mi North 10.4 mph - N/A   Overcast
10:53 AM 77.0 °F - 72.0 °F 84% 29.97 in 10.0 mi NNE 6.9 mph - N/A   Overcast
11:00 AM 78.1 °F - 72.0 °F 81% 29.98 in 10.0 mi North 10.4 mph - N/A   Overcast
11:53 AM 79.0 °F - 72.0 °F 79% 29.97 in 10.0 mi North 9.2 mph - N/A   Overcast
12:16 PM 80.1 °F 83.8 °F 72.0 °F 76% 29.97 in 10.0 mi NNE 8.1 mph - N/A   Overcast
12:53 PM 80.1 °F 83.8 °F 72.0 °F 76% 29.96 in 10.0 mi NNE 6.9 mph - N/A   Overcast
1:36 PM 82.9 °F 87.5 °F 71.1 °F 67% 29.95 in 10.0 mi NNE 11.5 mph - N/A   Overcast
1:53 PM 82.0 °F 86.3 °F 71.1 °F 69% 29.94 in 10.0 mi NNE 9.2 mph - N/A   Overcast
2:53 PM 82.9 °F 88.0 °F 72.0 °F 69% 29.91 in 10.0 mi NNE 11.5 mph - N/A   Partly Cloudy
3:53 PM 82.9 °F 88.0 °F 72.0 °F 69% 29.91 in 10.0 mi NE 11.5 mph - 0.00 in Rain Light Rain
4:53 PM 82.0 °F 86.7 °F 72.0 °F 71% 29.91 in 10.0 mi East 8.1 mph - 0.00 in   Partly Cloudy
5:53 PM 75.9 °F - 72.0 °F 87% 29.92 in 5.0 mi NNE 4.6 mph - 0.01 in Rain Light Rain
6:53 PM 75.9 °F - 72.0 °F 87% 29.94 in 10.0 mi NE 5.8 mph - 0.00 in   Mostly Cloudy
7:53 PM 75.0 °F - 72.0 °F 90% 29.95 in 10.0 mi Calm Calm - N/A   Scattered Clouds
8:53 PM 73.9 °F - 72.0 °F 93% 29.96 in 10.0 mi NE 3.5 mph - N/A   Clear
9:53 PM 73.9 °F - 71.1 °F 91% 29.98 in 10.0 mi Calm Calm - N/A   Clear
10:53 PM 73.0 °F - 70.0 °F 90% 29.99 in 10.0 mi Calm Calm - N/A   Overcast
11:53 PM 72.0 °F - 70.0 °F 93% 30.00 in 8.0 mi Calm Calm - N/A   Scattered Clouds